Sioux Falls, SD

4:59 PM CDT on September 19, 2017 (GMT -0500)
Foss

Weather History for KFSD - May, 2013

Change the Weather History Date:

Wednesday, May 15, 2013

  Actual Average Record
Temperature  
Mean Temperature 65 °F 58 °F  
Max Temperature 80 °F 70 °F 92 °F (2001)
Min Temperature 50 °F 46 °F 27 °F (1959)
Degree Days  
Heating Degree Days 0 8  
Month to date heating degree days 208 152  
Since 1 July heating degree days 7749 7559  
Cooling Degree Days 0 1  
Month to date cooling degree days 13 11  
Year to date cooling degree days 17 16  
Growing Degree Days 15 (Base 50)    
Moisture  
Dew Point 46 °F    
Average Humidity 49    
Maximum Humidity 74    
Minimum Humidity 27    
Precipitation  
Precipitation T in 0.11 in 1.36 in (1965)
Month to date precipitation 1.68 1.58  
Year to date precipitation 7.04 7.51  
Snow  
Snow 0.00 in 0.00 in T in (1916)
Month to date snowfall 1.5 0.4  
Since 1 July snowfall 43.3 44.9  
Snow Depth 0.00 in    
Sea Level Pressure  
Sea Level Pressure 29.88 in    
Wind  
Wind Speed 4 mph (NNE)    
Max Wind Speed 16 mph    
Max Gust Speed 23 mph    
Visibility 10 miles    
Events      
T = Trace of Precipitation, MM = Missing Value Source: NWS Daily Summary

Daily Weather History Graph

Daily Weather History Graph

Search for Another Location

Airport or City:

Trip Planner

Search our weather history database for the weather conditions in past years. The results will help you decide how hot, cold, wet, or windy it might be!

Date:

Astronomy

May. 15, 2013 Rise Set
Actual Time 6:01 AM CDT 8:45 PM CDT
Civil Twilight 5:28 AM CDT 9:18 PM CDT
Nautical Twilight 4:47 AM CDT 10:00 PM CDT
Astronomical Twilight 3:59 AM CDT 10:48 PM CDT
Moon 10:40 AM CDT (5/15) 12:31 AM CDT (5/15)
Length of Visible Light 15h 49m
Length of Day
14h 43m
Waxing Crescent, 27% of the Moon is Illuminated
May 15
Waxing Crescent
May 17
First Quarter
May 24
Full
May 31
Last Quarter
Jun 8
New

Hourly Weather History & Observations

Time (CDT) Temp. Dew Point Humidity Pressure Visibility Wind Dir Wind Speed Gust Speed Precip Events Conditions
12:56 AM 62.1 °F 44.1 °F 52% 29.81 in 10.0 mi NNE 10.4 mph - N/A   Clear
1:56 AM 59.0 °F 44.1 °F 58% 29.82 in 10.0 mi NNE 8.1 mph - N/A   Clear
2:56 AM 53.1 °F 43.0 °F 69% 29.85 in 10.0 mi Calm Calm - N/A   Clear
3:56 AM 50.0 °F 42.1 °F 74% 29.86 in 10.0 mi NNE 3.5 mph - N/A   Clear
4:56 AM 54.0 °F 43.0 °F 66% 29.83 in 10.0 mi NE 13.8 mph - N/A   Clear
5:56 AM 55.9 °F 43.0 °F 62% 29.91 in 10.0 mi North 4.6 mph - N/A   Partly Cloudy
6:56 AM 54.0 °F 45.0 °F 72% 29.93 in 10.0 mi North 3.5 mph - N/A   Clear
7:56 AM 59.0 °F 46.0 °F 62% 29.95 in 10.0 mi Calm Calm - N/A   Mostly Cloudy
8:56 AM 62.1 °F 46.9 °F 58% 29.96 in 10.0 mi SE 3.5 mph - N/A   Partly Cloudy
9:56 AM 64.9 °F 46.9 °F 52% 29.96 in 10.0 mi Calm Calm - 0.00 in   Scattered Clouds
10:56 AM 70.0 °F 45.0 °F 41% 29.94 in 10.0 mi SE 3.5 mph - N/A   Clear
11:56 AM 73.0 °F 46.9 °F 39% 29.92 in 10.0 mi Variable 3.5 mph - N/A   Clear
12:56 PM 75.0 °F 48.0 °F 38% 29.89 in 10.0 mi Calm Calm - N/A   Clear
1:56 PM 78.1 °F 48.0 °F 35% 29.90 in 10.0 mi Calm Calm - N/A   Scattered Clouds
2:56 PM 79.0 °F 46.9 °F 32% 29.89 in 10.0 mi NE 4.6 mph - N/A   Mostly Cloudy
3:56 PM 77.0 °F 48.9 °F 37% 29.89 in 10.0 mi North 8.1 mph - N/A   Partly Cloudy
4:56 PM 79.0 °F 48.9 °F 35% 29.87 in 10.0 mi NNE 6.9 mph - N/A   Partly Cloudy
5:56 PM 79.0 °F 46.9 °F 32% 29.86 in 10.0 mi NW 6.9 mph - N/A   Partly Cloudy
6:56 PM 78.1 °F 50.0 °F 37% 29.86 in 10.0 mi North 6.9 mph - N/A   Mostly Cloudy
7:56 PM 73.0 °F 48.9 °F 42% 29.86 in 10.0 mi North 6.9 mph - N/A   Mostly Cloudy
8:56 PM 71.1 °F 48.0 °F 44% 29.86 in 10.0 mi North 4.6 mph - N/A   Mostly Cloudy
9:56 PM 66.0 °F 48.0 °F 52% 29.87 in 10.0 mi NNE 8.1 mph - N/A   Mostly Cloudy
10:56 PM 63.0 °F 48.0 °F 58% 29.88 in 10.0 mi NNE 3.5 mph - N/A   Mostly Cloudy
11:56 PM 62.1 °F 46.0 °F 56% 29.89 in 10.0 mi Calm Calm - N/A   Partly Cloudy